Flag for Uruguay Weather past 2 weeks in Melo, Uruguay

Now
72 °F

Passing clouds.


Feels Like: 67 °F
Forecast: 61 / 70 °F
Wind: 8 mph from East

Location: Pelotas Airport

Current Time: Jul 30, 2015 at 11:56:41 AM

Latest Report: Jul 30, 2015 at 11:00 AM


Visibility: N/A

Pressure: 30.15 "Hg

Humidity: 94%

Dew point: 70 °F

Location of MeloLocation

Historic Weather in Melo — Graph

°F

Melo temperature yesterday

Maximum temperature yesterday: 82 °F (at 2:00 PM)
Minimum temperature yesterday: 61 °F (at 6:00 AM)
Average temperature yesterday: 72 °F

Past Weeks' High & Low Weather Summary

 TemperatureHumidityPressure
High82 °F (Jul 29, 2:00 PM)100% (Jul 15, 10:00 AM)30.33 "Hg (Jul 15, 10:00 AM)
Low41 °F (Jul 22, 6:00 AM)48% (Jul 29, 4:00 PM)29.92 "Hg (Jul 19, 1:00 PM)
Average58 °F95%30.16 "Hg
* Reported Jul 15 10:00 AM — Jul 30 10:00 AM, Melo, Weather by CustomWeather, © 2015

Note: Actual official high and low records may vary slightly from our data, if they occured in-between our weather recording intervals... More about our weather records

Advertising

Melo weather history for previous 24 hours

 ConditionsComfort  
Time TempWeatherWind HumidityBarometerVisibility
10:00 AM
Thu, Jul 30
64 °FScattered clouds.3 mph100%30.18 "Hg5 mi
9:00 AM61 °FFog.5 mph100%30.15 "Hg3 mi
8:00 AM61 °FFog.9 mph100%30.15 "Hg1 mi
7:00 AM63 °FPartly sunny.9 mph100%30.12 "HgN/A
6:00 AM64 °FPassing clouds.8 mph100%30.09 "HgN/A
11:00 PM
Wed, Jul 29
66 °FClear.3 mph88%30.07 "Hg10 mi
10:00 PM66 °FClear.3 mph88%30.07 "Hg10 mi
9:00 PM68 °FClear.3 mph83%30.04 "Hg10 mi
8:00 PM68 °FClear.3 mph78%30.04 "Hg10 mi
7:00 PM68 °FClear.2 mph83%30.04 "Hg10 mi
6:00 PM73 °FClear.5 mph69%30.04 "Hg10 mi
5:00 PM79 °FClear.2 mph58%30.04 "Hg10 mi
4:00 PM82 °FSunny.6 mph48%30.01 "Hg10 mi
3:00 PM82 °FSunny.3 mph51%30.04 "Hg10 mi
2:00 PM82 °FSunny.6 mph51%30.04 "Hg10 mi
1:00 PM81 °FSunny.7 mph54%30.04 "Hg10 mi
12:00 PM81 °FSunny.8 mph54%30.07 "Hg10 mi
11:00 AM81 °FSunny.6 mph54%30.07 "Hg10 mi
Weather by CustomWeather, © 2015

See weather overviewHow to use our weather pages